Location: El Mouella
(16.4949°N, 9.1594°W)
Time: 14:07:49
(UTC+00:00)

Cosmos 1437 Rocket - Pass Details

Date: 02 June 2020
Orbit: 507 x 561 km, 81.2° (Epoch: 04 July)

Event Time Altitude Azimuth Distance (km) Brightness Sun altitude
Exits shadow 20:54:35 24° 25° (NNE) 1,079 4.3 -23.6°
Drops below altitude 10° 20:56:14 10° 17° (NNE) 1,720 5.5 -23.9°
Sets 20:58:23 0° 12° (NNE) 2,609 6.6 -24.3°
